Weather reports worldwide

Advertisment
Eskdalemuir, United Kingdom (3162): temperature & dewpoint: 13.04.2019 00:00:00 - 19.04.2019 00:00:00 (BST)Eskdalemuir, United Kingdom (3162): temperature -20cm & temperature -100cm: 13.04.2019 00:00:00 - 19.04.2019 00:00:00 (BST)Eskdalemuir, United Kingdom (3162): wind speed & gusts: 13.04.2019 00:00:00 - 19.04.2019 00:00:00 (BST)Eskdalemuir, United Kingdom (3162): wind direction: 13.04.2019 00:00:00 - 19.04.2019 00:00:00 (BST)Eskdalemuir, United Kingdom (3162): reduced air pressure: 13.04.2019 00:00:00 - 19.04.2019 00:00:00 (BST)Eskdalemuir, United Kingdom (3162): visibility: 13.04.2019 00:00:00 - 19.04.2019 00:00:00 (BST)Eskdalemuir, United Kingdom (3162): sunshine duration: 13.04.2019 00:00:00 - 19.04.2019 00:00:00 (BST)Eskdalemuir, United Kingdom (3162): precipitation: 13.04.2019 00:00:00 - 19.04.2019 00:00:00 (BST)
Date & Time tt [°C] td [°C] tt -20cm [°C] tt -100cm [°C] ff [km/h] ff [kn] fx [km/h] fx [kn] dd ppp [hPa] vv [km] sd [min] rr [mm]
19.04.2019 00:00:00 7,1 5,0 - - 11 6 - - N 1030,7 10 0 -
18.04.2019 23:00:00 7,8 5,1 - - 11 6 - - N 1030,2 11 0 0,0
18.04.2019 22:00:00 9,6 4,7 - - 5 3 - - NNW 1029,4 19 0 0,0
18.04.2019 21:00:00 11,5 3,5 - - 9 5 - - N 1029,0 30 0 0,0
18.04.2019 20:00:00 13,6 4,4 - - 4 2 - - E 1028,1 30 6 0,0
18.04.2019 19:00:00 15,0 4,1 - - 11 6 - - E 1027,5 27 42 0,0
18.04.2019 18:00:00 16,4 4,3 - - 11 6 - - E 1026,9 29 60 0,0
18.04.2019 17:00:00 16,8 6,1 - - 15 8 - - E 1026,6 19 12 0,0
18.04.2019 16:00:00 17,3 8,2 - - 15 8 - - E 1026,6 19 30 0,0
18.04.2019 15:00:00 17,3 6,0 - - 13 7 - - ESE 1026,7 35 60 0,0
18.04.2019 14:00:00 16,5 6,3 - - 13 7 - - ESE 1026,9 16 60 0,0
18.04.2019 13:00:00 15,2 9,3 - - 16 9 - - ENE 1027,2 15 60 0,0
18.04.2019 12:00:00 11,7 7,8 - - 16 9 - - NE 1028,0 10 24 0,0
18.04.2019 11:00:00 11,1 7,3 - - 15 8 - - ENE 1028,1 9 60 0,0
18.04.2019 10:00:00 9,1 7,0 7,7 7,4 11 6 - - NE 1028,2 8 12 0,0
18.04.2019 09:00:00 6,9 5,7 - - 11 6 - - NNE 1028,5 8 12 0,0
18.04.2019 08:00:00 4,7 4,3 - - 15 8 - - N 1028,5 6 0 0,0
18.04.2019 07:00:00 4,2 4,1 - - 11 6 - - N 1028,0 3,5 0 0,0
18.04.2019 06:00:00 3,7 3,6 - - 13 7 - - N 1027,8 3,1 0 0,0
18.04.2019 05:00:00 3,5 3,4 - - 9 5 - - N 1027,4 2,9 0 0,0
18.04.2019 04:00:00 3,3 3,0 - - 13 7 - - N 1027,4 3,1 0 0,0
18.04.2019 03:00:00 3,5 3,2 - - 5 3 - - N 1027,4 4,0 0 0,0
18.04.2019 02:00:00 4,6 3,7 - - 11 6 - - NNW 1026,8 6 0 0,0
18.04.2019 01:00:00 4,5 3,6 - - 11 6 - - N 1026,9 6 - 0,0
18.04.2019 00:00:00 5,1 4,1 - - 15 8 - - N 1026,6 7 0 0,0
17.04.2019 23:00:00 6,1 4,5 - - 11 6 - - N 1026,3 9 0 0,0
17.04.2019 22:00:00 7,0 4,8 - - 11 6 - - N 1025,9 10 0 0,0
17.04.2019 21:00:00 7,8 5,2 - - 11 6 - - N 1025,3 12 0 0,0
17.04.2019 20:00:00 10,3 6,0 - - 18 10 - - NE 1024,0 14 30 0,0
17.04.2019 19:00:00 12,8 6,1 - - 16 9 - - NE 1022,8 20 60 0,0
17.04.2019 18:00:00 14,9 2,4 - - 11 6 - - E 1022,0 23 60 0,0
17.04.2019 17:00:00 15,5 3,0 - - 9 5 - - E 1021,9 25 60 0,0
17.04.2019 16:00:00 15,2 3,1 - - 13 7 - - E 1022,1 20 60 0,0
17.04.2019 15:00:00 14,8 1,5 - - 13 7 - - E 1022,4 27 60 0,0
17.04.2019 14:00:00 13,5 1,8 - - 11 6 - - E 1022,9 23 12 0,0
17.04.2019 13:00:00 12,6 5,5 - - 9 5 - - NE 1023,2 20 0 0,0
17.04.2019 12:00:00 10,2 5,5 - - 9 5 - - NE 1023,5 18 0 0,0
17.04.2019 11:00:00 8,8 5,0 - - 11 6 - - NNE 1023,7 13 36 0,0
17.04.2019 10:00:00 8,1 4,4 7,4 7,4 9 5 - - NE 1023,5 12 24 0,0
17.04.2019 09:00:00 6,7 4,2 - - 13 7 - - NNE 1023,3 12 0 0,0
17.04.2019 08:00:00 5,4 3,9 - - 13 7 - - NNE 1023,0 9 0 0,0
17.04.2019 07:00:00 4,7 3,4 - - 13 7 - - N 1022,7 9 0 0,0
17.04.2019 06:00:00 4,6 3,2 - - 11 6 - - N 1022,5 10 0 0,0
17.04.2019 05:00:00 4,8 3,1 - - 13 7 - - NNE 1022,2 10 0 0,0
17.04.2019 04:00:00 4,9 3,2 - - 11 6 - - NNE 1022,1 11 0 0,0
17.04.2019 03:00:00 4,9 3,0 - - 11 6 - - N 1022,2 11 0 0,0
17.04.2019 02:00:00 5,0 2,9 - - 13 7 - - N 1022,1 11 0 0,0
17.04.2019 01:00:00 5,1 3,1 - - 11 6 - - NNE 1022,1 11 - 0,0
17.04.2019 00:00:00 5,5 3,2 - - 8 4 - - NNE 1022,1 11 0 0,0
16.04.2019 23:00:00 5,8 3,4 - - 13 7 - - NNE 1021,9 10 0 0,0
16.04.2019 22:00:00 6,3 3,6 - - 9 5 - - NE 1021,6 10 0 0,0
16.04.2019 21:00:00 6,6 3,8 - - 9 5 - - NNE 1021,1 11 0 0,0
16.04.2019 20:00:00 7,6 4,4 - - 11 6 - - ENE 1020,4 11 0 0,0
16.04.2019 19:00:00 8,3 5,2 - - 11 6 - - ENE 1019,8 9 0 0,0
16.04.2019 18:00:00 9,2 4,7 - - 13 7 - - ENE 1019,2 12 0 0,0
16.04.2019 17:00:00 9,7 4,9 - - 15 8 - - ENE 1019,0 11 0 0,0
16.04.2019 16:00:00 10,8 5,2 - - 11 6 - - E 1018,7 12 0 0,0
16.04.2019 15:00:00 9,5 4,9 - - 16 9 - - NNE 1019,0 14 0 0,0
16.04.2019 14:00:00 9,8 5,3 - - 18 10 - - NE 1018,9 12 0 0,0
16.04.2019 13:00:00 10,0 5,3 - - 16 9 - - NE 1018,6 14 0 0,0
16.04.2019 12:00:00 9,4 5,4 - - 15 8 - - NE 1018,7 14 0 0,0
16.04.2019 11:00:00 8,8 5,6 - - 15 8 - - NE 1018,8 12 0 0,0
16.04.2019 10:00:00 7,9 5,3 7,0 7,4 15 8 - - NE 1019,0 11 0 0,0
16.04.2019 09:00:00 7,0 5,1 - - 15 8 - - ENE 1018,7 9 0 0,0
16.04.2019 08:00:00 6,4 4,9 - - 8 4 - - NNE 1018,4 8 0 0,0
16.04.2019 07:00:00 5,4 4,1 - - 9 5 - - N 1018,3 5 0 0,0
16.04.2019 06:00:00 6,0 4,5 - - 8 4 - - NE 1018,1 5 0 0,0
16.04.2019 05:00:00 6,0 4,4 - - 9 5 - - NNE 1018,2 6 0 0,0
16.04.2019 04:00:00 6,0 4,3 - - 9 5 - - ENE 1018,4 6 0 0,0
16.04.2019 03:00:00 6,4 4,0 - - 5 3 - - E 1018,4 6 0 0,0
16.04.2019 02:00:00 6,3 3,6 - - 5 3 - - ESE 1018,7 6 0 0,0
16.04.2019 01:00:00 6,0 2,6 - - 8 4 - - ESE 1018,8 7 - 0,0
16.04.2019 00:00:00 5,6 2,2 - - 5 3 - - ESE 1018,9 9 0 0,0
15.04.2019 23:00:00 5,9 2,8 - - 11 6 - - ESE 1018,7 8 0 0,0
15.04.2019 22:00:00 5,6 2,4 - - 8 4 - - ESE 1018,8 10 0 0,0
15.04.2019 21:00:00 5,6 2,4 - - 9 5 - - E 1018,6 10 0 0,0
15.04.2019 20:00:00 6,4 2,5 - - 11 6 - - E 1018,3 12 0 0,0
15.04.2019 19:00:00 7,5 2,4 - - 16 9 - - E 1017,8 18 12 0,0
15.04.2019 18:00:00 8,5 2,3 - - 24 13 - - E 1017,8 18 24 0,0
15.04.2019 17:00:00 9,8 1,7 - - 16 9 - - E 1017,7 25 36 0,0
15.04.2019 16:00:00 10,2 0,8 - - 15 8 - - E 1018,2 25 30 0,0
15.04.2019 15:00:00 10,6 0,3 - - 24 13 46 25 E 1018,8 25 54 0,0
15.04.2019 14:00:00 9,4 -0,5 - - 13 7 - - ESE 1020,0 22 48 0,0
15.04.2019 13:00:00 8,8 -1,3 - - 21 11 - - E 1020,9 18 6 0,0
15.04.2019 12:00:00 8,4 -0,4 - - 21 11 - - E 1021,9 20 36 0,0
15.04.2019 11:00:00 7,8 0,2 - - 13 7 - - ESE 1023,1 20 54 0,0
15.04.2019 10:00:00 6,5 0,0 7,0 7,5 13 7 - - ESE 1024,0 20 12 0,0
15.04.2019 09:00:00 4,8 0,3 - - 13 7 - - SE 1024,8 18 0 0,0
15.04.2019 08:00:00 3,6 -0,3 - - 13 7 - - SE 1025,2 18 0 0,0
15.04.2019 07:00:00 2,4 -0,5 - - 8 4 - - ESE 1025,5 13 0 0,0
15.04.2019 06:00:00 1,9 -1,1 - - 8 4 - - SE 1025,5 14 0 0,0
15.04.2019 05:00:00 1,3 -0,9 - - 8 4 - - SE 1026,5 14 0 0,0
15.04.2019 04:00:00 1,7 -1,0 - - 9 5 - - SE 1026,8 13 0 0,0
15.04.2019 03:00:00 2,0 -0,8 - - 8 4 - - SE 1026,8 14 0 0,0
15.04.2019 02:00:00 2,6 -0,9 - - 9 5 - - SE 1027,2 19 0 0,0
15.04.2019 01:00:00 2,0 -1,1 - - 5 3 - - ESE 1027,8 21 - 0,0
15.04.2019 00:00:00 2,3 -0,8 - - 8 4 - - ESE 1028,0 21 0 0,0
14.04.2019 23:00:00 2,6 -1,0 - - 9 5 - - E 1027,9 30 0 0,0
14.04.2019 22:00:00 3,0 -0,7 - - 15 8 - - E 1027,8 35 0 0,0
14.04.2019 21:00:00 3,4 -1,2 - - 13 7 - - E 1027,8 40 0 0,0
14.04.2019 20:00:00 4,5 -2,7 - - 8 4 - - ESE 1027,3 50 0 0,0
14.04.2019 19:00:00 5,3 -1,9 - - 15 8 - - E 1027,1 35 0 0,0
14.04.2019 18:00:00 5,8 -2,5 - - 11 6 - - ESE 1027,1 35 0 0,0
14.04.2019 17:00:00 6,1 -1,7 - - 13 7 - - E 1027,2 35 0 0,0
14.04.2019 16:00:00 5,8 -1,1 - - 13 7 - - SE 1027,8 40 0 0,0
14.04.2019 15:00:00 6,6 -0,8 - - 9 5 - - ESE 1027,8 35 0 0,0
14.04.2019 14:00:00 6,5 -1,4 - - 11 6 - - E 1027,5 35 0 0,0
14.04.2019 13:00:00 5,8 -2,1 - - 11 6 - - ESE 1027,9 35 0 0,0
14.04.2019 12:00:00 5,9 -1,2 - - 13 7 - - E 1027,9 35 6 0,0
14.04.2019 11:00:00 4,6 -1,4 - - 13 7 - - E 1029,0 28 0 0,0
14.04.2019 10:00:00 4,6 -3,6 7,2 7,5 11 6 - - ESE 1029,3 35 42 0,0
14.04.2019 09:00:00 4,7 -1,8 - - 8 4 - - ESE 1029,0 45 60 0,0
14.04.2019 08:00:00 1,2 -1,6 - - 8 4 - - N 1029,6 40 54 0,0
14.04.2019 07:00:00 0,2 -2,9 - - 8 4 - - NNW 1029,2 50 6 0,0
14.04.2019 06:00:00 0,8 -2,2 - - 11 6 - - NE 1028,9 45 0 0,0
14.04.2019 05:00:00 -0,6 -3,2 - - 13 7 - - NE 1029,1 45 0 0,0
14.04.2019 04:00:00 -0,9 -3,6 - - 9 5 - - NNE 1029,4 50 0 0,0
14.04.2019 03:00:00 -0,3 -3,1 - - 9 5 - - NE 1029,3 40 0 0,0
14.04.2019 02:00:00 0,1 -3,1 - - 11 6 - - N 1029,5 50 0 0,0
14.04.2019 01:00:00 0,2 -3,6 - - 9 5 - - N 1029,7 45 - 0,0
14.04.2019 00:00:00 -0,2 -3,8 - - 11 6 - - NNE 1029,6 45 0 0,0
13.04.2019 23:00:00 1,2 -3,5 - - 8 4 - - NE 1029,5 50 0 0,0
13.04.2019 22:00:00 1,9 -3,6 - - 11 6 - - E 1029,5 40 0 0,0
13.04.2019 21:00:00 2,6 -3,9 - - 11 6 - - E 1029,6 30 0 0,0
13.04.2019 20:00:00 3,8 -4,2 - - 9 5 - - E 1028,8 50 36 0,0
13.04.2019 19:00:00 4,8 -3,8 - - 8 4 - - ESE 1028,8 50 18 0,0
13.04.2019 18:00:00 5,7 -4,0 - - 15 8 - - E 1028,8 45 24 0,0
13.04.2019 17:00:00 6,6 -4,2 - - 15 8 - - SE 1028,6 35 48 0,0
13.04.2019 16:00:00 7,8 -4,6 - - 16 9 - - E 1028,7 28 42 0,0
13.04.2019 15:00:00 6,7 -3,7 - - 18 10 - - SE 1029,2 50 48 0,0
13.04.2019 14:00:00 6,8 -3,0 - - 16 9 - - SE 1029,6 45 18 0,0
13.04.2019 13:00:00 7,3 -2,7 - - 15 8 - - E 1029,4 28 30 0,0
13.04.2019 12:00:00 5,6 -3,0 - - 15 8 - - E 1029,8 40 6 0,0
13.04.2019 11:00:00 4,7 -3,5 - - 15 8 - - ESE 1030,5 40 6 0,0
13.04.2019 10:00:00 4,3 -3,3 7,5 7,5 15 8 - - SE 1030,6 50 42 0,0
13.04.2019 09:00:00 3,4 -0,5 - - 11 6 - - E 1031,1 40 18 0,0
13.04.2019 08:00:00 1,1 -0,7 - - 8 4 - - NE 1031,3 45 60 0,0
13.04.2019 07:00:00 -1,8 -2,6 - - 5 3 - - WNW 1031,4 17 12 0,0
13.04.2019 06:00:00 -1,7 -2,6 - - 4 2 - - NNW 1031,3 10 0 0,0
13.04.2019 05:00:00 -0,5 -1,4 - - 2 1 - - W 1031,3 16 0 0,0
13.04.2019 04:00:00 -1,8 -2,5 - - 4 2 - - NW 1031,3 15 0 0,0
13.04.2019 03:00:00 -2,0 -2,9 - - 4 2 - - NW 1031,5 17 0 0,0
13.04.2019 02:00:00 -2,2 -3,8 - - 4 2 - - NNW 1031,4 22 0 0,0
13.04.2019 01:00:00 -1,5 -2,9 - - 8 4 - - N 1031,1 26 - 0,0
13.04.2019 00:00:00 -0,5 -2,7 - - 5 3 - - NW 1031,0 35 0 0,0

tt = temperature
td = dewpoint
tt -20cm = temperature -20cm
tt -100cm = temperature -100cm
ff = wind speed
fx = gusts
dd = wind direction
ppp = reduced air pressure
vv = visibility
sd = sunshine duration
rr = precipitation

Next stations